Погода в Итларе

Россия / Ярославская область     56°51′34″N   39°17′17″E
темп.,
°C
ветер,
м/с
пор.,
м/с
влажн.,
%
обл.,
%
осадки,
мм/ч
давл.,
гПа
погр.,
м
24 октября, вс
вс2400:00+3зюз4108894 0.1 1007425
03:00+3зюз4984100 0.1 1008590
06:00+3зюз4794100 0.0 1008611
09:00+3з3794100 0.3 1009619
12:00+3зсз61096100 0.7 1011665
15:00+2сз7128286 1.6 10141098
18:00+1ссз7137898 0.2 10171110
21:000сз6128519 0.2 1020584
25 октября, пн
пн2500:000ссз6108157 0.0 1022817
03:00−2сз599226 0.0 1025370
06:00−3зсз489523 0.0 1026244
09:00−1зсз358482 0.0 1028266
12:00+1з4564100 0.0 1028668
15:00+2зюз5860100 0.0 1026715
18:00+1юз61372100 0.0 1025484
21:00+1юз6147596 0.0 1023501
26 октября, вт
вт2600:00+1зюз6148028 0.0 1022481
03:000зюз6138541 0.0 1022441
06:000зюз61386100 0.0 1021404
09:00+2зюз6138065 0.0 1020483
12:00+5зюз61268100 0.0 1019585
15:00+5зюз51269100 0.0 1019589
18:00+3юз51376100 0.0 1018399
21:00+3зюз51377100 0.0 1018413
27 октября, ср
ср2700:00+2юз51279100 0.0 1018375
03:00+1юз51284100 0.0 1017321
06:00+1юз51285100 0.0 1016326
09:00+2юз61380100 0.0 1016420
12:00+5юз61269100 0.0 1015540
15:00+5юз61372100 0.0 1013633
18:00+4зюз51093100 0.4 1014749
21:00+5зюз61291100 0.6 1014551
28 октября, чт
чт2800:00+5зюз61387100 0.0 1014541
03:00+6з7128548 0.0 1015801
06:00+5з6128614 0.0 1016544
09:00+4зюз4108746 0.0 1017349
12:00+7зюз51074100 0.0 1016681
15:00+7юз6977100 0.1 10141065
18:00+6юз51092100 1.9 1014624
21:00+6з3895100 2.3 1014456